TimeCST,TemperatureF,Dew PointF,Humidity,Sea Level PressureIn,VisibilityMPH,Wind Direction,Wind SpeedMPH,Gust SpeedMPH,PrecipitationIn,Events,Conditions,WindDirDegrees,DateUTC
12:12 AM,53.6,53.6,100,30.25,2.0,NW,10.4,-,N/A,,Overcast,320,2012-11-28 06:12:00
12:26 AM,53.6,53.6,100,30.25,2.5,NW,9.2,-,N/A,,Overcast,320,2012-11-28 06:26:00
12:30 AM,53.6,53.6,100,30.25,3.0,NW,10.4,-,N/A,,Overcast,320,2012-11-28 06:30:00
12:55 AM,52.7,52.3,99,30.25,4.0,NNW,8.1,-,N/A,,Overcast,340,2012-11-28 06:55:00
12:57 AM,51.8,51.8,100,30.25,4.0,NNW,6.9,-,N/A,,Overcast,340,2012-11-28 06:57:00
1:26 AM,51.8,51.8,100,30.25,6.0,NNW,6.9,-,N/A,,Overcast,330,2012-11-28 07:26:00
1:54 AM,51.8,51.8,100,30.26,6.0,NNW,9.2,-,N/A,,Overcast,340,2012-11-28 07:54:00
1:55 AM,51.6,51.4,99,30.26,6.0,NNW,9.2,-,N/A,,Overcast,340,2012-11-28 07:55:00
2:21 AM,51.8,50.0,94,30.26,6.0,NNW,9.2,-,N/A,,Overcast,340,2012-11-28 08:21:00
2:22 AM,51.8,50.0,94,30.26,6.0,NNW,9.2,-,N/A,,Overcast,340,2012-11-28 08:22:00
2:29 AM,51.8,50.0,94,30.26,6.0,NNW,10.4,-,N/A,,Overcast,340,2012-11-28 08:29:00
2:55 AM,51.1,50.5,98,30.27,9.0,North,10.4,-,N/A,,Overcast,350,2012-11-28 08:55:00
2:58 AM,51.8,50.0,94,30.27,10.0,North,10.4,-,N/A,,Overcast,350,2012-11-28 08:58:00
3:05 AM,51.8,50.0,94,30.27,10.0,NNW,5.8,-,N/A,,Overcast,340,2012-11-28 09:05:00
3:55 AM,50.5,48.9,94,30.28,10.0,North,11.5,-,N/A,,Overcast,350,2012-11-28 09:55:00
4:28 AM,50.0,48.2,94,30.28,9.0,North,12.7,-,N/A,,Overcast,350,2012-11-28 10:28:00
4:55 AM,50.0,48.7,95,30.30,7.0,North,11.5,-,N/A,,Overcast,350,2012-11-28 10:55:00
5:01 AM,50.0,48.2,94,30.30,6.0,NNW,11.5,-,N/A,,Overcast,340,2012-11-28 11:01:00
5:25 AM,50.0,48.2,94,30.30,7.0,North,9.2,-,N/A,,Overcast,350,2012-11-28 11:25:00
5:55 AM,49.6,48.0,94,30.31,7.0,NNW,6.9,-,N/A,,Overcast,340,2012-11-28 11:55:00
6:12 AM,50.0,48.2,94,30.31,9.0,North,9.2,-,N/A,,Overcast,350,2012-11-28 12:12:00
6:18 AM,50.0,48.2,94,30.31,9.0,North,5.8,-,N/A,,Overcast,350,2012-11-28 12:18:00
6:55 AM,49.6,47.5,92,30.33,10.0,NNW,6.9,-,N/A,,Overcast,340,2012-11-28 12:55:00
7:01 AM,50.0,46.4,87,30.34,10.0,North,9.2,-,N/A,,Overcast,360,2012-11-28 13:01:00
7:55 AM,48.9,43.9,83,30.37,10.0,North,11.5,-,N/A,,Overcast,10,2012-11-28 13:55:00
8:27 AM,48.2,42.8,82,30.37,10.0,NNW,9.2,-,N/A,,Overcast,340,2012-11-28 14:27:00
8:55 AM,49.1,43.3,81,30.38,10.0,North,9.2,-,N/A,,Overcast,360,2012-11-28 14:55:00
9:55 AM,50.4,43.2,76,30.38,10.0,North,9.2,-,N/A,,Mostly Cloudy,350,2012-11-28 15:55:00
10:12 AM,53.6,42.8,67,30.36,10.0,NE,8.1,-,N/A,,Scattered Clouds,50,2012-11-28 16:12:00
10:55 AM,54.7,42.3,63,30.37,10.0,NNW,9.2,-,N/A,,Partly Cloudy,340,2012-11-28 16:55:00
11:55 AM,57.7,41.2,54,30.34,10.0,NNE,6.9,-,N/A,,Clear,30,2012-11-28 17:55:00
12:55 PM,59.7,40.1,48,30.31,10.0,North,5.8,-,N/A,,Clear,350,2012-11-28 18:55:00
1:55 PM,61.3,38.7,43,30.29,10.0,NNE,10.4,-,N/A,,Clear,20,2012-11-28 19:55:00
2:55 PM,61.7,38.7,43,30.28,10.0,NNE,6.9,-,N/A,,Partly Cloudy,30,2012-11-28 20:55:00
3:55 PM,60.6,38.7,44,30.30,10.0,NNE,6.9,-,N/A,,Partly Cloudy,20,2012-11-28 21:55:00
4:55 PM,54.5,40.1,58,30.33,10.0,NNE,3.5,-,N/A,,Partly Cloudy,20,2012-11-28 22:55:00
5:55 PM,46.8,41.2,81,30.33,10.0,Calm,Calm,-,N/A,,Clear,0,2012-11-28 23:55:00
6:55 PM,43.7,40.6,89,30.35,10.0,NNE,2.3,-,N/A,,Clear,20,2012-11-29 00:55:00
7:55 PM,41.7,39.6,92,30.38,10.0,Calm,Calm,-,N/A,,Clear,0,2012-11-29 01:55:00
8:57 PM,39.7,37.9,93,30.37,10.0,East,4.6,-,N/A,,Clear,80,2012-11-29 02:57:00
9:55 PM,38.8,36.9,93,30.36,10.0,Calm,Calm,-,N/A,,Clear,0,2012-11-29 03:55:00
10:55 PM,37.0,35.4,94,30.35,10.0,East,2.3,-,N/A,,Clear,80,2012-11-29 04:55:00
11:55 PM,36.7,35.6,96,30.35,10.0,Calm,Calm,-,N/A,,Clear,0,2012-11-29 05:55:00